Presure
338 354 364 247 378 311 356 197 244 184 260 224 207 219 213 214 203 89 89 83 154 88 82 93 89 84 79 88 89 86 152 120 114 114 152 108 124 101 147 128 85 140 142 148 146
341 339 438 372 353 304 339 251 176 160 193 255 206 205 213 212 214 210 93 139 88 96 107 144 92 95 85 88 84 85 84 88 87 94 134 91 136 78 103 126 151 85 138 146 149
359 391 338 327 320 277 255 166 279 213 173 265 206 221 222 203 218 220 203 165 168 88 169 87 87 91 93 88 82 85 83 93 84 76 89 99 95 136 114 129 104 93 123 143 148
426 325 310 309 326 276 292 277 166 249 157 160 250 223 206 215 208 208 224 208 184 172 99 81 97 94 152 95 88 86 85 91 86 90 89 91 90 137 96 119 99 156 96 159 150
321 305 291 293 179 332 312 294 298 253 183 171 249 236 215 213 215 218 213 216 209 177 171 167 105 81 116 81 77 85 86 85 156 90 89 92 105 118 148 118 138 122 136 138 150
311 287 280 270 274 121 309 294 267 252 216 222 250 249 228 208 220 208 214 215 224 192 175 163 175 169 163 84 93 89 90 83 135 119 133 88 138 88 94 119 123 148 120 139 138
289 303 296 274 287 309 302 174 281 263 225 236 240 254 253 220 210 211 207 215 201 208 187 180 167 170 173 170 160 155 94 95 95 154 144 124 147 95 128 97 163 104 137 142 146
297 295 283 320 281 289 284 290 149 264 246 227 246 232 241 207 208 222 221 200 205 209 208 187 181 167 169 177 178 176 170 174 169 164 152 163 131 160 170 104 110 127 108 135 134
286 274 300 296 315 314 274 265 261 236 206 248 251 259 277 275 232 227 209 193 199 210 219 214 202 190 180 181 187 176 176 176 177 178 165 163 179 98 104 106 99 99 104 106 110
291 299 301 313 188 265 267 245 238 239 208 260 263 273 281 262 256 202 196 200 202 207 213 217 217 202 193 188 185 185 189 185 187 183 183 167 188 197 104 108 110 108 114 120 147
309 309 243 290 164 170 251 199 221 216 237 246 266 235 301 273 263 194 193 193 204 212 222 171 200 201 194 195 190 192 194 192 194 193 196 199 198 203 206 210 211 230 224 226 229
289 171 274 270 207 238 247 233 228 232 237 230 281 278 272 271 264 251 248 228 219 227 225 217 224 211 192 192 191 192 194 198 202 202 206 214 215 224 227 225 221 234 243 228 227
302 244 239 227 193 248 205 234 184 200 244 209 217 241 273 255 258 253 246 245 239 234 228 227 223 215 204 203 207 216 224 221 219 226 217 214 277 282 277 275 271 263 251 240 267
322 301 173 222 171 168 173 229 219 257 207 228 263 273 192 278 272 261 253 243 242 238 231 232 231 234 230 206 213 230 200 199 202 277 275 242 225 207 211 219 231 231 240 236 233
314 245 249 224 236 203 231 232 215 255 166 158 177 171 194 162 166 170 266 259 256 255 255 253 236 227 229 240 266 271 274 223 202 198 205 199 208 242 241 239 242 223 237 314 308
299 334 314 260 243 198 224 213 193 162 162 159 241 180 239 217 221 182 177 169 174 178 182 250 248 193 243 213 191 200 201 210 214 234 247 242 240 240 263 289 323 318 304 296 284
291 290 332 347 271 252 247 165 217 196 211 182 203 196 203 205 203 196 187 184 187 197 187 190 195 200 208 204 218 220 222 236 318 316 356 340 334 330 318 305 291 291 267 252 235
159 226 286 336 214 271 311 270 228 235 197 200 179 216 224 218 207 207 196 188 214 199 218 211 217 235 243 300 348 357 352 344 337 325 316 329 315 299 277 237 223 256 268 267 268
193 221 208 254 271 304 330 333 242 319 303 298 242 250 247 240 269 285 297 296 300 310 353 344 340 324 288 229 225 216 223 214 230 271 221 277 279 286 279 283 290 295 304 271 233
157 185 192 217 212 223 221 217 229 277 260 262 288 265 255 258 260 236 238 279 286 290 292 296 300 298 298 302 309 307 282 299 301 301 279 247 227 251 280 243 245 257 231 251 243
153 161 143 151 182 194 207 213 191 181 213 207 177 224 242 246 249 246 233 236 237 270 281 271 255 253 252 246 241 248 250 246 243 240 238 233 222 223 235 225 228 230 215 220 218
165 188 120 124 132 163 171 181 152 188 191 192 207 203 190 206 200 201 203 202 209 202 198 210 204 209 189 181 214 214 206 222 217 158 197 193 163 207 209 187 202 187 208 208 205
188 170 180 167 164 158 174 130 173 167 185 197 194 188 176 193 191 190 188 197 205 191 193 201 193 198 204 200 198 197 186 212 208 210 204 201 190 200 200 204 202 197 183 200 203
145 160 177 162 170 175 167 179 186 155 149 171 173 188 179 176 182 200 172 200 167 181 180 166 190 192 201 192 189 220 190 220 199 201 192 190 188 211 191 199 204 192 185 197 189
171 153 147 154 166 155 190 156 179 172 162 173 166 159 134 165 176 183 133 142 195 202 175 178 171 194 194 184 188 188 196 153 174 140 181 183 202 207 207 205 199 166 205 188 185
175 178 136 175 177 181 158 158 169 158 167 169 157 195 177 160 158 204 169 164 162 183 170 166 188 184 172 207 182 179 196 185 197 168 204 201 194 134 182 135 136 135 133 190 204
153 173 171 160 169 166 170 180 163 170 170 169 150 166 167 171 174 186 160 173 191 194 192 177 193 164 168 187 173 187 174 177 167 217 206 183 179 187 195 206 196 204 183 184 202
Wind_Speed
37 27 29 44 57 71 53 66 80 70 98 113 100 110 100 98 97 52 43 35 68 29 26 34 32 25 19 24 21 15 49 38 29 32 44 25 36 16 47 35 10 43 40 44 42
31 28 34 54 61 63 45 69 70 57 67 95 96 92 99 94 95 93 49 70 43 41 57 62 38 40 26 28 21 19 19 18 16 18 48 17 38 18 28 37 48 19 42 46 46
33 39 61 56 63 63 73 57 93 91 56 89 92 104 105 84 95 92 86 77 79 43 71 36 34 35 38 31 24 24 22 26 24 18 21 25 23 46 29 42 25 20 40 47 47
28 73 63 55 47 71 75 73 52 83 48 44 87 104 85 91 84 81 85 85 84 78 50 31 48 44 59 39 34 29 27 33 25 26 26 27 25 47 31 39 27 51 25 53 51
66 65 65 55 45 53 63 78 71 80 55 45 81 95 93 83 84 82 76 78 83 82 76 71 53 33 53 29 24 31 30 27 57 32 31 33 36 43 49 43 53 44 50 49 53
53 61 59 57 63 24 52 80 70 76 74 63 73 78 94 72 83 67 71 75 76 83 77 64 73 67 64 37 48 39 38 31 51 49 55 32 56 32 38 45 45 57 45 52 50
38 51 47 45 48 55 60 47 68 68 78 72 72 68 70 84 68 65 66 69 74 75 81 79 69 69 69 66 62 60 49 50 48 59 55 55 58 42 53 39 63 40 55 55 56
29 32 37 38 45 53 63 66 46 62 65 71 64 69 67 57 60 72 70 67 67 71 75 78 74 64 63 67 67 64 63 63 64 64 63 64 56 64 69 44 44 54 46 56 55
22 18 25 36 56 60 62 60 58 64 39 59 57 54 57 65 73 66 59 65 64 66 70 73 76 74 69 68 66 64 65 66 68 69 67 66 76 52 55 49 45 48 51 51 51
13 23 32 44 41 57 56 55 55 55 28 43 43 47 55 63 67 53 55 56 58 62 67 69 73 73 70 67 65 66 68 69 70 71 71 69 77 77 59 56 56 57 57 58 63
26 23 37 53 41 30 53 25 33 27 31 31 31 34 48 58 62 43 45 49 55 58 63 51 62 70 67 67 64 65 68 70 72 72 74 76 79 81 80 83 85 84 86 86 83
29 24 44 47 34 40 41 32 26 24 25 25 30 35 42 51 56 60 63 61 58 63 63 61 65 68 64 66 68 70 71 74 76 75 77 79 82 83 82 83 84 80 74 77 77
29 36 31 32 31 36 29 29 22 24 20 25 22 25 36 42 50 55 56 59 62 63 62 62 63 62 64 66 68 71 70 71 71 68 69 73 58 52 51 49 50 51 54 57 54
32 35 23 32 27 18 22 30 21 19 18 25 19 20 15 30 43 48 52 52 57 60 58 60 61 62 62 62 64 65 60 61 62 53 49 56 63 59 61 60 57 56 54 53 52
32 26 28 23 28 23 30 28 22 22 21 25 13 20 14 24 19 15 39 41 46 49 54 57 54 53 57 59 60 58 54 53 56 55 57 58 61 59 55 53 51 45 48 22 22
43 32 23 27 26 24 25 19 16 8 13 3 18 16 16 17 16 17 18 20 19 21 23 30 32 30 38 39 42 45 47 51 53 59 58 57 54 52 50 38 15 11 14 14 12
51 46 31 22 19 23 25 16 21 14 22 17 20 17 16 15 16 16 16 17 19 22 23 27 30 33 36 37 43 44 46 51 25 27 8 13 11 8 7 7 8 8 7 7 7
39 62 47 29 34 22 19 20 20 23 9 15 5 15 15 13 12 11 12 15 18 19 23 25 28 33 36 29 11 7 6 4 5 4 5 3 1 2 4 2 6 6 6 3 3
51 59 48 43 46 34 21 16 21 17 13 11 14 13 13 11 10 8 8 9 10 14 7 4 2 4 6 7 8 9 7 8 5 6 4 8 6 5 4 3 3 1 1 11 9
32 46 45 51 48 55 52 48 33 33 32 29 21 23 21 19 17 14 12 13 12 12 13 14 14 14 13 12 10 10 14 15 14 14 19 22 15 23 19 20 21 27 10 27 23
28 30 21 23 38 39 43 41 33 28 40 34 27 36 32 30 29 27 29 28 27 32 33 30 32 32 34 33 31 34 35 34 33 31 29 26 15 17 26 21 22 23 9 15 15
29 32 14 13 13 25 26 30 17 27 26 25 32 29 19 27 22 22 23 20 20 16 15 18 14 17 2 6 19 18 8 22 16 15 5 8 15 8 11 11 8 14 12 12 10
17 22 21 25 22 16 24 8 24 13 23 27 26 25 13 21 19 15 14 15 17 11 11 13 9 9 8 5 3 3 9 14 12 14 6 5 12 8 9 11 6 7 16 10 10
18 17 14 21 17 16 19 19 14 5 11 19 17 17 19 16 15 11 10 10 6 11 2 7 8 7 5 5 6 15 6 15 3 4 6 9 9 12 8 6 9 13 18 14 19
8 16 20 21 9 16 12 12 7 14 14 9 14 12 10 14 13 5 14 11 6 6 17 13 13 6 5 11 11 12 5 19 14 24 13 13 3 8 7 5 5 26 7 17 21
12 9 17 2 1 2 16 17 8 13 12 10 13 5 9 14 13 3 14 15 12 16 21 16 7 19 20 8 20 23 10 16 10 21 2 6 14 32 22 34 34 35 36 22 16
15 18 13 10 9 11 11 6 19 9 13 14 16 17 16 16 12 10 20 12 9 13 9 24 14 26 28 22 29 25 22 26 25 13 16 24 28 25 15 13 20 18 27 25 19
Wind_Direction
209 203 191 205 169 193 179 203 202 214 208 211 219 217 220 222 223 224 222 221 226 211 215 219 223 219 196 232 231 211 233 229 231 232 240 232 235 263 246 245 222 250 253 256 257
174 170 158 151 169 179 163 200 209 205 209 206 218 219 221 221 224 223 225 226 229 225 224 227 225 226 224 231 215 212 219 231 232 241 237 242 248 207 229 245 255 231 259 258 259
136 141 133 158 165 175 182 197 191 202 205 202 217 215 218 218 223 223 223 225 227 229 229 224 226 231 232 234 221 227 218 241 221 215 235 244 245 245 257 246 254 246 251 258 261
141 126 139 143 152 179 184 192 196 193 204 207 205 213 219 221 222 221 224 224 226 228 232 217 232 232 232 235 237 235 231 240 229 245 243 246 243 247 250 252 254 263 255 265 261
116 131 132 135 185 161 178 186 182 191 198 202 203 209 217 222 223 225 224 225 226 228 229 232 237 226 234 229 219 233 236 233 247 242 242 248 250 249 262 248 251 255 258 259 261
118 143 152 168 173 203 168 179 180 188 197 197 200 206 214 218 222 218 224 223 226 227 231 232 236 237 239 234 243 240 242 233 248 244 247 243 249 244 253 258 260 257 261 261 262
114 120 148 160 171 160 164 168 175 183 196 197 203 202 207 218 218 222 221 224 225 229 231 234 236 238 241 243 242 244 245 246 248 253 257 250 257 253 255 258 263 262 260 263 264
101 127 149 134 161 156 163 165 179 177 187 199 201 210 209 214 219 224 225 222 226 230 232 235 238 240 243 246 249 252 253 256 257 258 256 260 257 262 265 259 262 262 263 265 266
104 113 125 150 152 153 160 163 170 184 197 195 200 200 200 200 219 218 218 224 227 232 234 235 239 241 244 247 250 254 257 258 261 262 261 263 266 260 262 263 259 262 268 270 273
95 110 132 142 149 154 158 164 176 186 191 192 196 199 201 204 208 216 221 225 229 232 235 237 238 243 246 249 252 255 258 261 262 264 266 265 269 270 263 265 266 269 271 271 276
95 118 135 148 139 152 159 120 177 180 188 199 198 192 200 205 209 223 227 233 234 237 239 240 241 243 250 253 255 259 261 262 264 265 269 271 272 275 276 278 279 277 279 279 278
89 105 144 141 135 153 161 164 167 177 180 192 193 197 203 208 211 219 225 231 236 239 242 241 243 244 251 254 257 259 262 265 267 270 272 273 274 274 273 274 276 278 281 282 283
94 124 119 122 139 145 139 153 154 167 176 175 169 188 203 209 213 218 225 229 233 238 243 246 247 248 250 253 256 259 261 263 266 268 269 270 279 281 281 280 279 280 283 284 286
104 133 100 118 133 129 113 149 153 161 161 175 173 180 181 203 212 219 224 230 235 239 245 249 251 253 255 253 257 262 261 264 268 273 274 272 273 278 280 281 282 284 285 286 288
86 105 110 111 129 132 141 145 141 150 159 178 181 182 198 191 197 209 224 231 238 243 246 250 252 253 256 261 263 266 268 263 266 272 274 277 279 278 281 283 284 280 283 277 280
66 85 109 125 102 119 135 130 148 148 149 93 140 196 159 173 177 221 227 221 235 243 247 246 249 254 256 256 264 266 271 272 277 275 272 275 277 279 281 282 285 277 277 289 303
64 71 81 99 138 118 150 106 142 147 153 160 172 186 180 185 197 214 236 253 259 249 268 263 262 262 264 271 270 273 275 274 279 276 266 266 263 244 257 274 299 290 267 263 281
66 67 75 77 83 106 175 153 147 149 158 183 132 178 173 184 208 220 240 251 245 259 254 262 262 260 259 265 282 301 298 300 295 322 357 267 99 95 128 212 245 252 244 284 3
54 63 65 78 82 90 107 137 106 196 193 189 137 153 166 180 206 224 246 243 259 269 265 270 147 122 163 212 225 244 247 267 265 84 250 86 93 121 111 107 81 89 73 79 82
51 52 61 69 77 77 80 85 97 102 107 112 115 118 120 124 126 120 124 121 120 122 121 120 115 110 106 107 104 106 104 95 93 95 95 95 102 92 88 91 90 87 84 89 84
35 47 49 57 59 62 69 75 82 86 83 92 86 91 96 98 99 101 99 99 101 99 101 104 105 103 102 102 100 95 96 96 95 95 95 96 105 91 81 76 73 71 68 60 49
31 49 12 26 36 41 74 51 68 71 70 76 79 90 91 86 92 94 93 92 89 93 91 93 96 102 8 279 107 106 117 104 112 276 232 260 274 111 81 278 55 296 52 44 23
52 26 48 25 38 51 40 11 38 62 50 70 59 46 62 68 65 65 52 64 82 64 64 85 85 91 106 140 185 232 285 103 97 97 111 92 280 50 34 39 35 344 305 356 354
0 11 33 6 21 38 20 53 53 29 7 25 31 48 25 29 29 77 21 100 339 16 35 328 360 5 92 355 324 107 341 101 49 58 325 324 313 76 337 12 23 329 299 330 297
1 348 346 347 360 356 57 10 41 16 1 17 1 357 322 357 2 11 258 280 46 60 342 340 331 286 282 315 316 315 294 279 297 272 309 307 42 55 42 24 306 289 330 314 316
329 338 331 349 357 146 328 328 297 331 318 313 332 34 293 332 321 27 329 332 332 303 325 318 269 306 317 202 308 314 246 307 297 306 201 226 273 275 293 277 277 277 277 306 328
304 308 301 272 278 279 277 305 316 277 307 276 307 308 289 310 287 328 305 289 306 300 261 294 282 312 315 297 309 290 309 304 306 347 265 280 294 302 283 308 285 301 299 299 313